User: anonymous
Location: Ostrava
(49.8330°N, 18.2830°E)
Time: 11:50:18
(UTC+02:00)
Language:

Cosmos 2221 - Orbit

View from above orbital plane
View from above orbital plane
View from above satellite
View from above satellite

Ground track
Ground track

The orbit data is extracted from the following two-line orbital elements,

1 22236U 92080A   14211.90108580  .00000765  00000-0  84807-4 0  2053
2 22236 082.5117 332.0978 0016215 244.5987 115.3551 14.85920765170935
Epoch (UTC): 30 July 2014 21:37:33
Eccentricity: 0.0016215
inclination: 82.5117°
perigee height: 599 km
apogee height: 622 km
right ascension of ascending node: 332.0978°
argument of perigee: 244.5987°
revolutions per day: 14.85920765
mean anomaly at epoch: 115.3551°
orbit number at epoch: 17093

The dashed part of the orbit path shows where the satellite is in the earth's shadow,  

DLR